Regional Weather Roundup
Issued by NWS

Home | Current Version | Previous Version | Graphics & Text | Print | Product List | Glossary On
Versions: 1 2 3 4 5 6 7 8 9 10 11 12 13 14 15 16 17 18 19 20 21 22 23 24 25 26 27 28 29 30 31 32 33 34 35 36 37 38 39 40 41 42 43 44 45 46 47 48 49 50
439
ASUS44 KJAN 302003
RWRMS

MISSISSIPPI HOURLY WEATHER ROUNDUP
NATIONAL WEATHER SERVICE JACKSON MS
200 PM CST FRI JAN 30 2015

NOTE: "FAIR: INDICATES FEW OR NO CLOUDS BELOW 12,000 FEET WITH NO
SIGNIFICANT WEATHER AND/OR OBSTRUCTIONS TO VISIBILITY.

MSZ001>002-007>008-010>013-018>021-025>028-034>036-302100-
NORTHWEST MISSISSIPPI

CITY           SKY/WX    TMP DP  RH WIND       PRES   REMARKS
CLARKSDALE     FAIR      48  30  49 N12G17    30.45F
CLEVELAND      FAIR      49  33  54 N14       30.43F
GREENWOOD      SUNNY     53  29  39 NW8       30.40F
GREENVILLE     SUNNY     50  31  48 N10       30.43F
GRENADA        FAIR      52  28  40 N6        30.41F
OLIVE BRANCH   MOSUNNY   46  27  46 N6        30.44F
OXFORD         FAIR      48  23  37 NE5       30.43F
TUNICA         CLEAR     48  28  46 N12       30.45F
$$

MSZ003>006-009-014>017-022>024-029>033-037>039-302100-
NORTHEAST MISSISSIPPI

CITY           SKY/WX    TMP DP  RH WIND       PRES   REMARKS
COLUMBUS AFB   SUNNY     52  25  35 NW13      30.39F
CORINTH        FAIR      48  23  37 N7        30.41F
GOLDN TRIANGLE SUNNY     54  28  37 N9        30.38F
STARKVILLE     FAIR      50  32  50 N6        30.39F
TUPELO         SUNNY     49  24  37 NE15      30.42F
$$

MSZ040-058-302100-
CENTRAL MISSISSIPPI

CITY           SKY/WX    TMP DP  RH WIND       PRES   REMARKS
JACKSON INTL   MOSUNNY   55  28  35 N10       30.38F
JACKSON HAWKNS MOSUNNY   56  26  31 NE9       30.38F
MERIDIAN KEY   MOSUNNY   57  26  30 N13       30.35F
MERIDIAN NAS   MOSUNNY   55  26  32 N14       30.37F
RAYMOND        FAIR      55  50  82 N7        30.38F
VICKSBURG      MOSUNNY   56  31  38 N10       30.40F
$$

MSZ059>079-302100-
SOUTH MISSISSIPPI

CITY           SKY/WX    TMP DP  RH WIND       PRES   REMARKS
BROOKHAVEN     FAIR      57  30  35 N8        30.36F
HATTIESBURG    PTSUNNY   59  29  31 N9        30.34F
MCCOMB         PTSUNNY   58  29  33 N8        30.34F
NATCHEZ        PTSUNNY   54  30  40 NW5       30.37F
PINE BELT      PTSUNNY   57  28  33 NE9G16    30.35F
$$

MSZ080>082-302100-
COASTAL MISSISSIPPI

CITY           SKY/WX    TMP DP  RH WIND       PRES   REMARKS
BILOXI         CLOUDY    58  32  37 N7        30.30F
PASCAGOULA     PTSUNNY   60  32  34 N8        30.30F
GULFPORT       CLOUDY    59  30  33 VRB7      30.31F
$$



USA.gov is the U.S. government's official web portal to all federal, state and local government web resources and services.